| time (UTC) | temp F | wind direction | speed knots | gust knots | rain 1hr in | rain 24hr in | rain mn in | humidity % | barometer mb |
| 20260901020003 | 59 | 164 | 0.9 | 1.7 | 0.00 | 0.04 | 0.01 | 80 | 1017.5 |
| 20260901015503 | 59 | 164 | 0.9 | 1.7 | 0.00 | 0.04 | 0.01 | 80 | 1017.5 |
| 20260901015003 | 59 | 164 | 0.9 | 1.7 | 0.00 | 0.04 | 0.01 | 80 | 1017.5 |
| 20260901014524 | 59 | 117 | 0.9 | 1.7 | 0.00 | 0.04 | 0.01 | 80 | 1017.3 |
| 20260901014024 | 59 | 117 | 0.9 | 1.7 | 0.00 | 0.04 | 0.01 | 80 | 1017.3 |
| 20260901013503 | 59 | 117 | 0.9 | 1.7 | 0.00 | 0.04 | 0.01 | 80 | 1017.3 |
| 20260901013003 | 59 | 146 | 0.0 | 1.7 | 0.00 | 0.04 | 0.01 | 78 | 1017.4 |
| 20260901012503 | 59 | 146 | 0.0 | 1.7 | 0.00 | 0.04 | 0.01 | 78 | 1017.4 |
| 20260901012024 | 59 | 146 | 0.0 | 1.7 | 0.00 | 0.04 | 0.01 | 78 | 1017.4 |
| 20260901011503 | 60 | 0 | 0.0 | 0.0 | 0.00 | 0.04 | 0.01 | 76 | 1017.4 |
| 20260901011003 | 60 | 0 | 0.0 | 0.0 | 0.00 | 0.04 | 0.01 | 76 | 1017.4 |
| 20260901010503 | 60 | 0 | 0.0 | 0.0 | 0.00 | 0.04 | 0.01 | 76 | 1017.4 |
| 20260901010003 | 61 | 159 | 0.9 | 1.7 | 0.00 | 0.04 | 0.01 | 73 | 1017.4 |
| 20260901005503 | 61 | 159 | 0.9 | 1.7 | 0.00 | 0.04 | 0.01 | 73 | 1017.4 |
| 20260901005024 | 61 | 159 | 0.9 | 1.7 | 0.00 | 0.04 | 0.01 | 73 | 1017.4 |
| 20260901004503 | 63 | 163 | 0.9 | 1.7 | 0.00 | 0.04 | 0.01 | 70 | 1017.3 |
| 20260901004003 | 63 | 163 | 0.9 | 1.7 | 0.00 | 0.04 | 0.01 | 70 | 1017.3 |
| 20260901003503 | 63 | 163 | 0.9 | 1.7 | 0.00 | 0.04 | 0.01 | 70 | 1017.3 |
| 20260901003003 | 64 | 169 | 0.9 | 3.5 | 0.00 | 0.04 | 0.01 | 67 | 1017.2 |
| 20260901002503 | 64 | 169 | 0.9 | 3.5 | 0.00 | 0.04 | 0.01 | 67 | 1017.2 |
| 20260901002003 | 64 | 169 | 0.9 | 3.5 | 0.00 | 0.04 | 0.01 | 67 | 1017.2 |
| 20260901001503 | 65 | 147 | 0.9 | 2.6 | 0.00 | 0.04 | 0.01 | 65 | 1017.0 |
| 20260901001003 | 65 | 147 | 0.9 | 2.6 | 0.00 | 0.04 | 0.01 | 65 | 1017.0 |
| 20260901000503 | 65 | 147 | 0.9 | 2.6 | 0.00 | 0.04 | 0.01 | 65 | 1017.0 |
| 20260901000003 | 66 | 164 | 0.9 | 3.5 | 0.00 | 0.04 | 0.01 | 62 | 1016.7 |
| 20260831235503 | 66 | 164 | 0.9 | 3.5 | 0.00 | 0.04 | 0.01 | 62 | 1016.7 |
| 20260831235003 | 66 | 164 | 0.9 | 3.5 | 0.00 | 0.04 | 0.01 | 62 | 1016.7 |
| 20260831234503 | 67 | 168 | 1.7 | 3.5 | 0.00 | 0.04 | 0.01 | 60 | 1016.8 |
| 20260831234024 | 67 | 168 | 1.7 | 3.5 | 0.00 | 0.04 | 0.01 | 60 | 1016.8 |
| 20260831233524 | 67 | 168 | 1.7 | 3.5 | 0.00 | 0.04 | 0.01 | 60 | 1016.8 |
| 20260831233003 | 69 | 183 | 0.9 | 3.5 | 0.00 | 0.04 | 0.01 | 57 | 1017.1 |
| 20260831232503 | 69 | 183 | 0.9 | 3.5 | 0.00 | 0.04 | 0.01 | 57 | 1017.1 |
| 20260831232003 | 69 | 183 | 0.9 | 3.5 | 0.00 | 0.04 | 0.01 | 57 | 1017.1 |
| 20260831231524 | 71 | 188 | 0.9 | 3.5 | 0.00 | 0.04 | 0.01 | 54 | 1017.0 |
| 20260831231003 | 71 | 188 | 0.9 | 3.5 | 0.00 | 0.04 | 0.01 | 54 | 1017.0 |
| 20260831230503 | 71 | 188 | 0.9 | 3.5 | 0.00 | 0.04 | 0.01 | 54 | 1017.0 |
| 20260831230003 | 73 | 169 | 1.7 | 5.2 | 0.00 | 0.04 | 0.01 | 51 | 1017.0 |
| 20260831225503 | 73 | 169 | 1.7 | 5.2 | 0.00 | 0.04 | 0.01 | 51 | 1017.0 |
| 20260831225024 | 73 | 169 | 1.7 | 5.2 | 0.00 | 0.04 | 0.01 | 51 | 1017.0 |
| 20260831224503 | 74 | 169 | 1.7 | 6.1 | 0.00 | 0.04 | 0.01 | 48 | 1017.1 |
| 20260831224003 | 74 | 169 | 1.7 | 6.1 | 0.00 | 0.04 | 0.01 | 48 | 1017.1 |
| 20260831223524 | 74 | 169 | 1.7 | 6.1 | 0.00 | 0.04 | 0.01 | 48 | 1017.1 |
| 20260831223003 | 75 | 184 | 1.7 | 7.0 | 0.00 | 0.04 | 0.01 | 47 | 1017.1 |
| 20260831222503 | 75 | 184 | 1.7 | 7.0 | 0.00 | 0.04 | 0.01 | 47 | 1017.1 |
| 20260831222003 | 75 | 184 | 1.7 | 7.0 | 0.00 | 0.04 | 0.01 | 47 | 1017.1 |
| 20260831221503 | 76 | 152 | 1.7 | 7.0 | 0.00 | 0.04 | 0.01 | 45 | 1016.9 |
| 20260831221024 | 76 | 152 | 1.7 | 7.0 | 0.00 | 0.04 | 0.01 | 45 | 1016.9 |
| 20260831220503 | 76 | 152 | 1.7 | 7.0 | 0.00 | 0.04 | 0.01 | 45 | 1016.9 |
| 20260831220003 | 76 | 178 | 2.6 | 7.0 | 0.00 | 0.04 | 0.01 | 43 | 1017.0 |
| 20260831215503 | 76 | 178 | 2.6 | 7.0 | 0.00 | 0.04 | 0.01 | 43 | 1017.0 |
| 20260831215003 | 76 | 178 | 2.6 | 7.0 | 0.00 | 0.04 | 0.01 | 43 | 1017.0 |
| 20260831214503 | 77 | 171 | 2.6 | 7.0 | 0.00 | 0.04 | 0.01 | 43 | 1017.0 |
| 20260831214003 | 77 | 171 | 2.6 | 7.0 | 0.00 | 0.04 | 0.01 | 43 | 1017.0 |
| 20260831213524 | 77 | 171 | 2.6 | 7.0 | 0.00 | 0.04 | 0.01 | 43 | 1017.0 |
| 20260831213003 | 77 | 164 | 2.6 | 7.8 | 0.00 | 0.04 | 0.01 | 42 | 1017.1 |
| 20260831212524 | 77 | 164 | 2.6 | 7.8 | 0.00 | 0.04 | 0.01 | 42 | 1017.1 |
| 20260831212003 | 77 | 164 | 2.6 | 7.8 | 0.00 | 0.04 | 0.01 | 42 | 1017.1 |
| 20260831211503 | 78 | 188 | 1.7 | 4.3 | 0.00 | 0.04 | 0.01 | 40 | 1017.0 |
| 20260831211003 | 78 | 188 | 1.7 | 4.3 | 0.00 | 0.04 | 0.01 | 40 | 1017.0 |
| 20260831210503 | 78 | 188 | 1.7 | 4.3 | 0.00 | 0.04 | 0.01 | 40 | 1017.0 |
| 20260831210003 | 78 | 162 | 3.5 | 10.4 | 0.00 | 0.04 | 0.01 | 40 | 1017.0 |
| 20260831205503 | 78 | 162 | 3.5 | 10.4 | 0.00 | 0.04 | 0.01 | 40 | 1017.0 |
| 20260831205003 | 78 | 162 | 3.5 | 10.4 | 0.00 | 0.04 | 0.01 | 40 | 1017.0 |
| 20260831204503 | 80 | 254 | 2.6 | 7.8 | 0.00 | 0.04 | 0.01 | 32 | 1017.0 |
| 20260831204024 | 80 | 254 | 2.6 | 7.8 | 0.00 | 0.04 | 0.01 | 32 | 1017.0 |
| 20260831203503 | 80 | 254 | 2.6 | 7.8 | 0.00 | 0.04 | 0.01 | 32 | 1017.0 |
| 20260831203003 | 80 | 278 | 1.7 | 7.8 | 0.00 | 0.04 | 0.01 | 33 | 1017.1 |
| 20260831202503 | 80 | 278 | 1.7 | 7.8 | 0.00 | 0.04 | 0.01 | 33 | 1017.1 |
| 20260831202003 | 80 | 278 | 1.7 | 7.8 | 0.00 | 0.04 | 0.01 | 33 | 1017.1 |
| 20260831201524 | 79 | 236 | 2.6 | 6.1 | 0.00 | 0.04 | 0.01 | 33 | 1017.0 |
| 20260831201003 | 79 | 236 | 2.6 | 6.1 | 0.00 | 0.04 | 0.01 | 33 | 1017.0 |
| 20260831200524 | 79 | 236 | 2.6 | 6.1 | 0.00 | 0.04 | 0.01 | 33 | 1017.0 |
| 20260831200003 | 80 | 151 | 0.9 | 3.5 | 0.00 | 0.04 | 0.01 | 35 | 1017.0 |
| 20260831195503 | 80 | 151 | 0.9 | 3.5 | 0.00 | 0.04 | 0.01 | 35 | 1017.0 |
| 20260831195003 | 80 | 151 | 0.9 | 3.5 | 0.00 | 0.04 | 0.01 | 35 | 1017.0 |
| 20260831194503 | 80 | 260 | 1.7 | 3.5 | 0.00 | 0.04 | 0.01 | 34 | 1017.2 |
| 20260831194024 | 80 | 260 | 1.7 | 3.5 | 0.00 | 0.04 | 0.01 | 34 | 1017.2 |
| 20260831193503 | 80 | 260 | 1.7 | 3.5 | 0.00 | 0.04 | 0.01 | 34 | 1017.2 |
| 20260831193003 | 78 | 280 | 2.6 | 7.0 | 0.00 | 0.04 | 0.01 | 34 | 1017.4 |
| 20260831192503 | 78 | 280 | 2.6 | 7.0 | 0.00 | 0.04 | 0.01 | 34 | 1017.4 |
| 20260831192003 | 78 | 280 | 2.6 | 7.0 | 0.00 | 0.04 | 0.01 | 34 | 1017.4 |
| 20260831191524 | 78 | 329 | 1.7 | 5.2 | 0.00 | 0.04 | 0.01 | 34 | 1017.5 |
| 20260831191003 | 78 | 329 | 1.7 | 5.2 | 0.00 | 0.04 | 0.01 | 34 | 1017.5 |
| 20260831190503 | 78 | 329 | 1.7 | 5.2 | 0.00 | 0.04 | 0.01 | 34 | 1017.5 |
| 20260831190003 | 78 | 323 | 0.9 | 2.6 | 0.00 | 0.04 | 0.01 | 36 | 1017.6 |
| 20260831185503 | 78 | 323 | 0.9 | 2.6 | 0.00 | 0.04 | 0.01 | 36 | 1017.6 |
| 20260831185024 | 78 | 323 | 0.9 | 2.6 | 0.00 | 0.04 | 0.01 | 36 | 1017.6 |
| 20260831184503 | 77 | 275 | 2.6 | 7.8 | 0.00 | 0.04 | 0.01 | 38 | 1017.9 |
| 20260831184003 | 77 | 275 | 2.6 | 7.8 | 0.00 | 0.04 | 0.01 | 38 | 1017.9 |
| 20260831183503 | 77 | 275 | 2.6 | 7.8 | 0.00 | 0.04 | 0.01 | 38 | 1017.9 |
| 20260831183024 | 76 | 99 | 1.7 | 5.2 | 0.00 | 0.04 | 0.01 | 38 | 1017.9 |
| 20260831182503 | 76 | 99 | 1.7 | 5.2 | 0.00 | 0.04 | 0.01 | 38 | 1017.9 |
| 20260831182003 | 76 | 99 | 1.7 | 5.2 | 0.00 | 0.04 | 0.01 | 38 | 1017.9 |
| 20260831181503 | 76 | 265 | 1.7 | 6.1 | 0.00 | 0.04 | 0.01 | 39 | 1018.1 |
| 20260831181003 | 76 | 265 | 1.7 | 6.1 | 0.00 | 0.04 | 0.01 | 39 | 1018.1 |
| 20260831180503 | 76 | 265 | 1.7 | 6.1 | 0.00 | 0.04 | 0.01 | 39 | 1018.1 |
| 20260831180003 | 74 | 288 | 2.6 | 8.7 | 0.00 | 0.04 | 0.01 | 41 | 1018.2 |
| 20260831175503 | 74 | 288 | 2.6 | 8.7 | 0.00 | 0.04 | 0.01 | 41 | 1018.2 |
| 20260831175003 | 74 | 288 | 2.6 | 8.7 | 0.00 | 0.04 | 0.01 | 41 | 1018.2 |
| 20260831174524 | 74 | 278 | 2.6 | 6.1 | 0.00 | 0.04 | 0.01 | 40 | 1018.5 |
| 20260831174003 | 74 | 278 | 2.6 | 6.1 | 0.00 | 0.04 | 0.01 | 40 | 1018.5 |
| 20260831173503 | 74 | 278 | 2.6 | 6.1 | 0.00 | 0.04 | 0.01 | 40 | 1018.5 |
| 20260831173003 | 73 | 277 | 2.6 | 7.8 | 0.00 | 0.04 | 0.01 | 43 | 1018.5 |
| 20260831172503 | 73 | 277 | 2.6 | 7.8 | 0.00 | 0.04 | 0.01 | 43 | 1018.5 |
| 20260831172003 | 73 | 277 | 2.6 | 7.8 | 0.00 | 0.04 | 0.01 | 43 | 1018.5 |
| 20260831171503 | 73 | 353 | 2.6 | 7.8 | 0.00 | 0.04 | 0.01 | 44 | 1018.6 |
| 20260831171003 | 73 | 353 | 2.6 | 7.8 | 0.00 | 0.04 | 0.01 | 44 | 1018.6 |
| 20260831170503 | 73 | 353 | 2.6 | 7.8 | 0.00 | 0.04 | 0.01 | 44 | 1018.6 |
| 20260831170003 | 73 | 295 | 1.7 | 6.1 | 0.00 | 0.04 | 0.01 | 43 | 1018.8 |
| 20260831165503 | 73 | 295 | 1.7 | 6.1 | 0.00 | 0.04 | 0.01 | 43 | 1018.8 |
| 20260831165003 | 73 | 295 | 1.7 | 6.1 | 0.00 | 0.04 | 0.01 | 43 | 1018.8 |
| 20260831164503 | 72 | 22 | 1.7 | 9.6 | 0.00 | 0.04 | 0.01 | 43 | 1018.9 |
| 20260831164003 | 72 | 22 | 1.7 | 9.6 | 0.00 | 0.04 | 0.01 | 43 | 1018.9 |
| 20260831163503 | 72 | 22 | 1.7 | 9.6 | 0.00 | 0.04 | 0.01 | 43 | 1018.9 |
| 20260831163003 | 71 | 351 | 2.6 | 7.8 | 0.00 | 0.04 | 0.01 | 42 | 1018.8 |
| 20260831162503 | 71 | 351 | 2.6 | 7.8 | 0.00 | 0.04 | 0.01 | 42 | 1018.8 |
| 20260831162003 | 71 | 351 | 2.6 | 7.8 | 0.00 | 0.04 | 0.01 | 42 | 1018.8 |
| 20260831161503 | 71 | 318 | 1.7 | 5.2 | 0.00 | 0.04 | 0.01 | 46 | 1019.0 |
| 20260831161003 | 71 | 318 | 1.7 | 5.2 | 0.00 | 0.04 | 0.01 | 46 | 1019.0 |
| 20260831160503 | 71 | 318 | 1.7 | 5.2 | 0.00 | 0.04 | 0.01 | 46 | 1019.0 |
| 20260831160003 | 70 | 358 | 2.6 | 5.2 | 0.00 | 0.04 | 0.01 | 46 | 1019.3 |
| 20260831155503 | 70 | 358 | 2.6 | 5.2 | 0.00 | 0.04 | 0.01 | 46 | 1019.3 |
| 20260831155003 | 70 | 358 | 2.6 | 5.2 | 0.00 | 0.04 | 0.01 | 46 | 1019.3 |
| 20260831154503 | 70 | 330 | 2.6 | 7.8 | 0.00 | 0.04 | 0.01 | 45 | 1019.5 |
| 20260831154003 | 70 | 330 | 2.6 | 7.8 | 0.00 | 0.04 | 0.01 | 45 | 1019.5 |
| 20260831153503 | 70 | 330 | 2.6 | 7.8 | 0.00 | 0.04 | 0.01 | 45 | 1019.5 |
| 20260831153003 | 69 | 296 | 3.5 | 9.6 | 0.00 | 0.04 | 0.01 | 46 | 1019.6 |
| 20260831152503 | 69 | 296 | 3.5 | 9.6 | 0.00 | 0.04 | 0.01 | 46 | 1019.6 |
| 20260831152024 | 69 | 296 | 3.5 | 9.6 | 0.00 | 0.04 | 0.01 | 46 | 1019.6 |
| 20260831151503 | 69 | 24 | 2.6 | 7.0 | 0.00 | 0.04 | 0.01 | 47 | 1019.7 |
| 20260831151003 | 69 | 24 | 2.6 | 7.0 | 0.00 | 0.04 | 0.01 | 47 | 1019.7 |
| 20260831150503 | 69 | 24 | 2.6 | 7.0 | 0.00 | 0.04 | 0.01 | 47 | 1019.7 |
| 20260831150003 | 68 | 298 | 2.6 | 7.0 | 0.00 | 0.04 | 0.01 | 50 | 1019.9 |
| 20260831145503 | 68 | 298 | 2.6 | 7.0 | 0.00 | 0.04 | 0.01 | 50 | 1019.9 |
| 20260831145003 | 68 | 298 | 2.6 | 7.0 | 0.00 | 0.04 | 0.01 | 50 | 1019.9 |
| 20260831144503 | 67 | 318 | 2.6 | 7.0 | 0.00 | 0.04 | 0.01 | 48 | 1019.9 |
| 20260831144003 | 67 | 318 | 2.6 | 7.0 | 0.00 | 0.04 | 0.01 | 48 | 1019.9 |
| 20260831143503 | 67 | 318 | 2.6 | 7.0 | 0.00 | 0.04 | 0.01 | 48 | 1019.9 |
| 20260831143003 | 66 | 302 | 2.6 | 6.1 | 0.00 | 0.04 | 0.01 | 50 | 1020.0 |
| 20260831142503 | 66 | 302 | 2.6 | 6.1 | 0.00 | 0.04 | 0.01 | 50 | 1020.0 |
| 20260831142003 | 66 | 302 | 2.6 | 6.1 | 0.00 | 0.04 | 0.01 | 50 | 1020.0 |
| 20260831141503 | 66 | 292 | 2.6 | 6.1 | 0.00 | 0.04 | 0.01 | 56 | 1020.0 |
| 20260831141003 | 66 | 292 | 2.6 | 6.1 | 0.00 | 0.04 | 0.01 | 56 | 1020.0 |
| 20260831140524 | 66 | 292 | 2.6 | 6.1 | 0.00 | 0.04 | 0.01 | 56 | 1020.0 |
| 20260831140003 | 65 | 279 | 3.5 | 7.8 | 0.00 | 0.04 | 0.01 | 58 | 1020.0 |
| 20260831135503 | 65 | 279 | 3.5 | 7.8 | 0.00 | 0.04 | 0.01 | 58 | 1020.0 |
| 20260831135003 | 65 | 279 | 3.5 | 7.8 | 0.00 | 0.04 | 0.01 | 58 | 1020.0 |
| 20260831134503 | 64 | 296 | 2.6 | 7.0 | 0.00 | 0.04 | 0.01 | 61 | 1019.7 |
| 20260831134003 | 64 | 296 | 2.6 | 7.0 | 0.00 | 0.04 | 0.01 | 61 | 1019.7 |
| 20260831133503 | 64 | 296 | 2.6 | 7.0 | 0.00 | 0.04 | 0.01 | 61 | 1019.7 |
| 20260831133003 | 64 | 335 | 1.7 | 7.0 | 0.00 | 0.04 | 0.01 | 64 | 1019.6 |
| 20260831132503 | 64 | 335 | 1.7 | 7.0 | 0.00 | 0.04 | 0.01 | 64 | 1019.6 |
| 20260831132003 | 64 | 335 | 1.7 | 7.0 | 0.00 | 0.04 | 0.01 | 64 | 1019.6 |
| 20260831131503 | 63 | 320 | 1.7 | 4.3 | 0.00 | 0.04 | 0.01 | 70 | 1019.5 |
| 20260831131024 | 63 | 320 | 1.7 | 4.3 | 0.00 | 0.04 | 0.01 | 70 | 1019.5 |
| 20260831130503 | 63 | 320 | 1.7 | 4.3 | 0.00 | 0.04 | 0.01 | 70 | 1019.5 |
| 20260831130003 | 62 | 301 | 1.7 | 4.3 | 0.00 | 0.04 | 0.01 | 74 | 1019.4 |
| 20260831125503 | 62 | 301 | 1.7 | 4.3 | 0.00 | 0.04 | 0.01 | 74 | 1019.4 |
| 20260831125003 | 62 | 301 | 1.7 | 4.3 | 0.00 | 0.04 | 0.01 | 74 | 1019.4 |
| 20260831124503 | 61 | 281 | 1.7 | 5.2 | 0.00 | 0.04 | 0.01 | 77 | 1019.3 |
| 20260831124003 | 61 | 281 | 1.7 | 5.2 | 0.00 | 0.04 | 0.01 | 77 | 1019.3 |
| 20260831123503 | 61 | 281 | 1.7 | 5.2 | 0.00 | 0.04 | 0.01 | 77 | 1019.3 |
| 20260831123003 | 59 | 303 | 0.9 | 2.6 | 0.00 | 0.04 | 0.01 | 81 | 1019.3 |
| 20260831122503 | 59 | 303 | 0.9 | 2.6 | 0.00 | 0.04 | 0.01 | 81 | 1019.3 |
| 20260831122024 | 59 | 303 | 0.9 | 2.6 | 0.00 | 0.04 | 0.01 | 81 | 1019.3 |
| 20260831121503 | 58 | 321 | 0.9 | 1.7 | 0.00 | 0.04 | 0.01 | 85 | 1019.3 |
| 20260831121003 | 58 | 321 | 0.9 | 1.7 | 0.00 | 0.04 | 0.01 | 85 | 1019.3 |
| 20260831120503 | 58 | 321 | 0.9 | 1.7 | 0.00 | 0.04 | 0.01 | 85 | 1019.3 |
| 20260831120003 | 56 | 290 | 0.9 | 1.7 | 0.00 | 0.04 | 0.01 | 87 | 1019.4 |
| 20260831115503 | 56 | 290 | 0.9 | 1.7 | 0.00 | 0.04 | 0.01 | 87 | 1019.4 |
| 20260831115003 | 56 | 290 | 0.9 | 1.7 | 0.00 | 0.04 | 0.01 | 87 | 1019.4 |
| 20260831114503 | 55 | 296 | 0.9 | 2.6 | 0.00 | 0.04 | 0.01 | 87 | 1019.3 |
| 20260831114003 | 55 | 296 | 0.9 | 2.6 | 0.00 | 0.04 | 0.01 | 87 | 1019.3 |
| 20260831113503 | 55 | 296 | 0.9 | 2.6 | 0.00 | 0.04 | 0.01 | 87 | 1019.3 |
| 20260831113003 | 54 | 316 | 0.9 | 3.5 | 0.00 | 0.04 | 0.01 | 88 | 1019.2 |
| 20260831112503 | 54 | 316 | 0.9 | 3.5 | 0.00 | 0.04 | 0.01 | 88 | 1019.2 |
| 20260831112003 | 54 | 316 | 0.9 | 3.5 | 0.00 | 0.04 | 0.01 | 88 | 1019.2 |
| 20260831111503 | 54 | 345 | 0.9 | 1.7 | 0.00 | 0.04 | 0.01 | 89 | 1019.0 |
| 20260831111024 | 54 | 345 | 0.9 | 1.7 | 0.00 | 0.04 | 0.01 | 89 | 1019.0 |
| 20260831110524 | 54 | 345 | 0.9 | 1.7 | 0.00 | 0.04 | 0.01 | 89 | 1019.0 |
| 20260831110024 | 54 | 19 | 0.9 | 1.7 | 0.00 | 0.04 | 0.01 | 90 | 1018.8 |
| 20260831105503 | 54 | 19 | 0.9 | 1.7 | 0.00 | 0.04 | 0.01 | 90 | 1018.8 |
| 20260831105024 | 54 | 19 | 0.9 | 1.7 | 0.00 | 0.04 | 0.01 | 90 | 1018.8 |
| 20260831104503 | 54 | 289 | 0.0 | 1.7 | 0.00 | 0.04 | 0.01 | 90 | 1018.9 |
| 20260831104003 | 54 | 289 | 0.0 | 1.7 | 0.00 | 0.04 | 0.01 | 90 | 1018.9 |
| 20260831103503 | 54 | 289 | 0.0 | 1.7 | 0.00 | 0.04 | 0.01 | 90 | 1018.9 |
| 20260831103003 | 54 | 279 | 0.0 | 1.7 | 0.00 | 0.04 | 0.01 | 90 | 1018.8 |
| 20260831102524 | 54 | 279 | 0.0 | 1.7 | 0.00 | 0.04 | 0.01 | 90 | 1018.8 |
| 20260831102003 | 54 | 279 | 0.0 | 1.7 | 0.00 | 0.04 | 0.01 | 90 | 1018.8 |
| 20260831101503 | 53 | 249 | 0.0 | 1.7 | 0.00 | 0.04 | 0.01 | 90 | 1018.7 |
| 20260831101024 | 53 | 249 | 0.0 | 1.7 | 0.00 | 0.04 | 0.01 | 90 | 1018.7 |
| 20260831100503 | 53 | 249 | 0.0 | 1.7 | 0.00 | 0.04 | 0.01 | 90 | 1018.7 |
| 20260831100003 | 54 | 249 | 0.0 | 1.7 | 0.00 | 0.04 | 0.01 | 90 | 1018.4 |
| 20260831095503 | 54 | 249 | 0.0 | 1.7 | 0.00 | 0.04 | 0.01 | 90 | 1018.4 |
| 20260831095003 | 54 | 249 | 0.0 | 1.7 | 0.00 | 0.04 | 0.01 | 90 | 1018.4 |
| 20260831094503 | 54 | 249 | 0.0 | 1.7 | 0.01 | 0.04 | 0.01 | 90 | 1018.3 |
| 20260831094003 | 54 | 249 | 0.0 | 1.7 | 0.01 | 0.04 | 0.01 | 90 | 1018.3 |
| 20260831093503 | 54 | 249 | 0.0 | 1.7 | 0.01 | 0.04 | 0.01 | 90 | 1018.3 |
| 20260831093024 | 54 | 271 | 0.9 | 1.7 | 0.01 | 0.04 | 0.01 | 89 | 1018.2 |
| 20260831092503 | 54 | 271 | 0.9 | 1.7 | 0.01 | 0.04 | 0.01 | 89 | 1018.2 |
| 20260831092003 | 54 | 271 | 0.9 | 1.7 | 0.01 | 0.04 | 0.01 | 89 | 1018.2 |
| 20260831091503 | 55 | 314 | 0.0 | 1.7 | 0.01 | 0.04 | 0.01 | 88 | 1018.0 |
| 20260831091024 | 55 | 314 | 0.0 | 1.7 | 0.01 | 0.04 | 0.01 | 88 | 1018.0 |
| 20260831090503 | 55 | 314 | 0.0 | 1.7 | 0.01 | 0.04 | 0.01 | 88 | 1018.0 |
| 20260831090003 | 55 | 314 | 0.0 | 1.7 | 0.01 | 0.04 | 0.01 | 88 | 1017.8 |
| 20260831085503 | 55 | 314 | 0.0 | 1.7 | 0.01 | 0.04 | 0.01 | 88 | 1017.8 |
| 20260831085003 | 55 | 314 | 0.0 | 1.7 | 0.01 | 0.04 | 0.01 | 88 | 1017.8 |
| 20260831084503 | 56 | 300 | 0.9 | 1.7 | 0.00 | 0.03 | 0.00 | 87 | 1017.8 |
| 20260831084003 | 56 | 300 | 0.9 | 1.7 | 0.00 | 0.03 | 0.00 | 87 | 1017.8 |
| 20260831083503 | 56 | 300 | 0.9 | 1.7 | 0.00 | 0.03 | 0.00 | 87 | 1017.8 |
| 20260831083003 | 56 | 34 | 0.9 | 1.7 | 0.00 | 0.03 | 0.00 | 87 | 1017.7 |
| 20260831082503 | 56 | 34 | 0.9 | 1.7 | 0.00 | 0.03 | 0.00 | 87 | 1017.7 |
| 20260831082003 | 56 | 34 | 0.9 | 1.7 | 0.00 | 0.03 | 0.00 | 87 | 1017.7 |
| 20260831081524 | 56 | 320 | 1.7 | 5.2 | 0.00 | 0.03 | 0.00 | 87 | 1017.4 |
| 20260831081024 | 56 | 320 | 1.7 | 5.2 | 0.00 | 0.03 | 0.00 | 87 | 1017.4 |
| 20260831080503 | 56 | 320 | 1.7 | 5.2 | 0.00 | 0.03 | 0.00 | 87 | 1017.4 |
| 20260831080003 | 56 | 343 | 1.7 | 4.3 | 0.00 | 0.03 | 0.00 | 88 | 1017.4 |
| 20260831075503 | 56 | 343 | 1.7 | 4.3 | 0.00 | 0.03 | 0.00 | 88 | 1017.4 |
| 20260831075003 | 56 | 343 | 1.7 | 4.3 | 0.00 | 0.03 | 0.00 | 88 | 1017.4 |
| 20260831074524 | 56 | 290 | 0.9 | 4.3 | 0.00 | 0.03 | 0.00 | 87 | 1017.2 |
| 20260831074003 | 56 | 290 | 0.9 | 4.3 | 0.00 | 0.03 | 0.00 | 87 | 1017.2 |
| 20260831073524 | 56 | 290 | 0.9 | 4.3 | 0.00 | 0.03 | 0.00 | 87 | 1017.2 |
| 20260831073003 | 56 | 299 | 0.9 | 3.5 | 0.00 | 0.03 | 0.00 | 87 | 1017.2 |
| 20260831072503 | 56 | 299 | 0.9 | 3.5 | 0.00 | 0.03 | 0.00 | 87 | 1017.2 |
| 20260831072003 | 56 | 299 | 0.9 | 3.5 | 0.00 | 0.03 | 0.00 | 87 | 1017.2 |
| 20260831071524 | 57 | 307 | 1.7 | 6.1 | 0.00 | 0.03 | 0.00 | 87 | 1017.2 |
| 20260831071003 | 57 | 307 | 1.7 | 6.1 | 0.00 | 0.03 | 0.00 | 87 | 1017.2 |
| 20260831070503 | 57 | 307 | 1.7 | 6.1 | 0.00 | 0.03 | 0.00 | 87 | 1017.2 |
| 20260831070003 | 57 | 291 | 1.7 | 5.2 | 0.00 | 0.03 | 0.00 | 88 | 1017.3 |
| 20260831065503 | 57 | 291 | 1.7 | 5.2 | 0.00 | 0.03 | 0.00 | 88 | 1017.3 |
| 20260831065003 | 57 | 291 | 1.7 | 5.2 | 0.00 | 0.03 | 0.00 | 88 | 1017.3 |
| 20260831064503 | 57 | 308 | 1.7 | 4.3 | 0.00 | 0.03 | 0.00 | 88 | 1017.3 |
| 20260831064003 | 57 | 308 | 1.7 | 4.3 | 0.00 | 0.03 | 0.00 | 88 | 1017.3 |
| 20260831063503 | 57 | 308 | 1.7 | 4.3 | 0.00 | 0.03 | 0.00 | 88 | 1017.3 |
| 20260831063003 | 57 | 307 | 1.7 | 4.3 | 0.00 | 0.03 | 0.00 | 89 | 1017.4 |
| 20260831062503 | 57 | 307 | 1.7 | 4.3 | 0.00 | 0.03 | 0.00 | 89 | 1017.4 |
| 20260831062003 | 57 | 307 | 1.7 | 4.3 | 0.00 | 0.03 | 0.00 | 89 | 1017.4 |
| 20260831061503 | 57 | 308 | 1.7 | 4.3 | 0.00 | 0.03 | 0.00 | 89 | 1016.7 |
| 20260831061003 | 57 | 308 | 1.7 | 4.3 | 0.00 | 0.03 | 0.00 | 89 | 1016.7 |
| 20260831060503 | 57 | 308 | 1.7 | 4.3 | 0.00 | 0.03 | 0.00 | 89 | 1016.7 |
| 20260831060024 | 56 | 86 | 0.9 | 2.6 | 0.00 | 0.03 | 0.00 | 91 | 1016.7 |
| 20260831055503 | 56 | 86 | 0.9 | 2.6 | 0.00 | 0.03 | 0.00 | 91 | 1016.7 |
| 20260831055003 | 56 | 86 | 0.9 | 2.6 | 0.00 | 0.03 | 0.00 | 91 | 1016.7 |
| 20260831054503 | 57 | 15 | 0.9 | 1.7 | 0.00 | 0.03 | 0.00 | 89 | 1016.6 |
| 20260831054003 | 57 | 15 | 0.9 | 1.7 | 0.00 | 0.03 | 0.00 | 89 | 1016.6 |
| 20260831053503 | 57 | 15 | 0.9 | 1.7 | 0.00 | 0.03 | 0.00 | 89 | 1016.6 |
| 20260831053003 | 58 | 298 | 0.9 | 2.6 | 0.00 | 0.03 | 0.00 | 88 | 1016.5 |
| 20260831052503 | 58 | 298 | 0.9 | 2.6 | 0.00 | 0.03 | 0.00 | 88 | 1016.5 |
| 20260831052003 | 58 | 298 | 0.9 | 2.6 | 0.00 | 0.03 | 0.00 | 88 | 1016.5 |
| 20260831051503 | 58 | 277 | 0.9 | 2.6 | 0.00 | 0.03 | 0.00 | 89 | 1016.4 |
| 20260831051003 | 58 | 277 | 0.9 | 2.6 | 0.00 | 0.03 | 0.00 | 89 | 1016.4 |
| 20260831050503 | 58 | 277 | 0.9 | 2.6 | 0.00 | 0.03 | 0.00 | 89 | 1016.4 |
| 20260831050024 | 58 | 264 | 0.9 | 2.6 | 0.00 | 0.03 | 0.00 | 89 | 1016.2 |
| 20260831045503 | 58 | 264 | 0.9 | 2.6 | 0.00 | 0.03 | 0.00 | 89 | 1016.2 |
| 20260831045003 | 58 | 264 | 0.9 | 2.6 | 0.00 | 0.03 | 0.00 | 89 | 1016.2 |
| 20260831044503 | 58 | 295 | 0.9 | 1.7 | 0.00 | 0.03 | 0.00 | 90 | 1016.1 |
| 20260831044003 | 58 | 295 | 0.9 | 1.7 | 0.00 | 0.03 | 0.00 | 90 | 1016.1 |
| 20260831043503 | 58 | 295 | 0.9 | 1.7 | 0.00 | 0.03 | 0.00 | 90 | 1016.1 |
| 20260831043003 | 59 | 259 | 0.9 | 2.6 | 0.00 | 0.03 | 0.00 | 90 | 1016.2 |
| 20260831042503 | 59 | 259 | 0.9 | 2.6 | 0.00 | 0.03 | 0.00 | 90 | 1016.2 |
| 20260831042003 | 59 | 259 | 0.9 | 2.6 | 0.00 | 0.03 | 0.00 | 90 | 1016.2 |
| 20260831041524 | 59 | 286 | 0.0 | 1.7 | 0.00 | 0.03 | 0.00 | 91 | 1016.3 |
| 20260831041003 | 59 | 286 | 0.0 | 1.7 | 0.00 | 0.03 | 0.00 | 91 | 1016.3 |
| 20260831040503 | 59 | 286 | 0.0 | 1.7 | 0.00 | 0.03 | 0.00 | 91 | 1016.3 |
| 20260831040024 | 59 | 279 | 0.9 | 2.6 | 0.00 | 0.03 | 0.00 | 91 | 1016.3 |
| 20260831035524 | 59 | 279 | 0.9 | 2.6 | 0.00 | 0.03 | 0.03 | 91 | 1016.3 |
| 20260831035003 | 59 | 279 | 0.9 | 2.6 | 0.00 | 0.03 | 0.03 | 91 | 1016.3 |
| 20260831034503 | 60 | 285 | 0.9 | 2.6 | 0.00 | 0.03 | 0.03 | 91 | 1016.2 |
| 20260831034003 | 60 | 285 | 0.9 | 2.6 | 0.00 | 0.03 | 0.03 | 91 | 1016.2 |
| 20260831033503 | 60 | 285 | 0.9 | 2.6 | 0.00 | 0.03 | 0.03 | 91 | 1016.2 |
| 20260831033003 | 60 | 250 | 0.0 | 1.7 | 0.00 | 0.03 | 0.03 | 91 | 1016.2 |
| 20260831032503 | 60 | 250 | 0.0 | 1.7 | 0.00 | 0.03 | 0.03 | 91 | 1016.2 |
| 20260831032003 | 60 | 250 | 0.0 | 1.7 | 0.00 | 0.03 | 0.03 | 91 | 1016.2 |
| 20260831031524 | 60 | 233 | 0.9 | 1.7 | 0.01 | 0.03 | 0.03 | 90 | 1016.1 |
| 20260831031003 | 60 | 233 | 0.9 | 1.7 | 0.01 | 0.03 | 0.03 | 90 | 1016.1 |
| 20260831030503 | 60 | 233 | 0.9 | 1.7 | 0.01 | 0.03 | 0.03 | 90 | 1016.1 |
| 20260831030003 | 60 | 296 | 0.0 | 1.7 | 0.03 | 0.03 | 0.03 | 89 | 1016.2 |
| 20260831025503 | 60 | 296 | 0.0 | 1.7 | 0.03 | 0.03 | 0.03 | 89 | 1016.2 |
| 20260831025003 | 60 | 296 | 0.0 | 1.7 | 0.03 | 0.03 | 0.03 | 89 | 1016.2 |
| 20260831024503 | 60 | 288 | 0.9 | 2.6 | 0.03 | 0.03 | 0.03 | 88 | 1016.5 |
| 20260831024003 | 60 | 288 | 0.9 | 2.6 | 0.03 | 0.03 | 0.03 | 88 | 1016.5 |
| 20260831023503 | 60 | 288 | 0.9 | 2.6 | 0.03 | 0.03 | 0.03 | 88 | 1016.5 |
| 20260831023003 | 61 | 309 | 0.9 | 3.5 | 0.03 | 0.03 | 0.03 | 85 | 1016.6 |
| 20260831022503 | 61 | 309 | 0.9 | 3.5 | 0.03 | 0.03 | 0.03 | 85 | 1016.6 |
| 20260831022024 | 61 | 309 | 0.9 | 3.5 | 0.03 | 0.03 | 0.03 | 85 | 1016.6 |
| 20260831021503 | 63 | 341 | 3.5 | 9.6 | 0.02 | 0.02 | 0.02 | 79 | 1016.5 |
| 20260831021003 | 63 | 341 | 3.5 | 9.6 | 0.02 | 0.02 | 0.02 | 79 | 1016.5 |
| 20260831020503 | 63 | 341 | 3.5 | 9.6 | 0.02 | 0.02 | 0.02 | 79 | 1016.5 |